User: anonymous   Login
Location: Robledo de Chavela
(40.5014°N, 4.2377°W)
Time: 13:57:36
(UTC+00:00)
Language:

Spot 2 Rocket - Orbit

View from above orbital plane
View from above orbital plane
View from above satellite
View from above satellite

Ground track
Ground track

The orbit data is extracted from the following two-line orbital elements,

1 20443U 90005H   24175.77095898  .00000404  00000-0  14499-3 0  9997
2 20443  98.3931 241.1696 0009029 280.1249  79.8921 14.38975246803043
Epoch (UTC): 23 June 2024 18:30:10
Eccentricity: 0.0009029
inclination: 98.3931°
perigee height: 755 km
apogee height: 768 km
right ascension of ascending node: 241.1696°
argument of perigee: 280.1249°
revolutions per day: 14.38975246
mean anomaly at epoch: 79.8921°
orbit number at epoch: 80304

The dashed part of the orbit path shows where the satellite is in the earth's shadow,  

DLR